Location: Asheville, NC
(35.6000°N, 82.5500°W)
Time: 06:33:18

FO-29 - Pass Details

Date: 12 March 2018
Orbit: 800 x 1321 km, 98.5° (Epoch: 16 March)

Event Time Altitude Azimuth Distance (km) Brightness Sun altitude
Rises 21:11:50 0° 13° (NNE) 4,017 12.7 -20.4°
Reaches altitude 10° 21:14:21 10° 15° (NNE) 3,115 12.1 -20.9°
Maximum altitude 21:21:39 82° 103° (ESE) 1,281 9.9 -22.3°
Drops below altitude 10° 21:29:28 10° 191° (S) 3,329 12.2 -23.8°
Sets 21:32:13 0° 192° (SSW) 4,306 12.8 -24.4°
